{"data":{"norad_id":60273,"epoch":"2026-09-21T07:27:02.403072Z","epoch_age_seconds":111542,"freshness":"FRESH","line1":"1 60273U 24131U   26264.31044448  .00000517  00000+0  26445-4 0  9994","line2":"2 60273  53.1596 222.0586 0001458  78.2288 281.8878 15.34390018121692","mean_motion":15.34390018,"eccentricity":0.0001458,"inclination_deg":53.1596,"raan_deg":222.0586,"arg_perigee_deg":78.2288,"mean_anomaly_deg":281.8878,"bstar":2.6445e-5,"rev_number":12169,"period_min":93.848368609499,"perigee_km":461.73551014283,"apogee_km":463.73030780829,"semimajor_km":6840.8699089756,"source":"CELESTRAK","updated_at":"2026-09-22T09:00:49.190000Z"}}